Regional Weather Roundup
Issued by NWS

Home | Current Version | Previous Version | Graphics & Text | Print | Product List | Glossary On
Versions: 1 2 3 4 5 6 7 8 9 10 11 12 13 14 15 16 17 18 19 20 21 22 23 24 25 26 27 28 29 30 31 32 33 34 35 36 37 38 39 40 41 42 43 44 45 46 47 48 49 50
000
ASUS45 KPSR 181510
RWRAZ

ARIZONA HOURLY REGIONAL WEATHER ROUNDUP
NATIONAL WEATHER SERVICE PHOENIX AZ
800 AM MST THU JAN 18 2018

NOTE: FAIR INDICATES FEW OR NO CLOUDS BELOW 12,000 FEET WITH NO
SIGNIFICANT WEATHER AND/OR OBSTRUCTIONS TO VISIBILITY.

AZZ001>003-036-181600-
NORTHWEST ARIZONA

CITY           SKY/WX    TMP DP  RH WIND       PRES   REMARKS
BULLHEAD CITY  MOCLDY    52  37  58 CALM      30.18S
KINGMAN        PTCLDY    41  26  55 VRB3      30.22R
$$

AZZ004>008-015-016-018-181600-
NORTH CENTRAL ARIZONA

CITY           SKY/WX    TMP DP  RH WIND       PRES   REMARKS
GRAND CANYON   PTCLDY    21  17  84 NE6       30.30S WCI  13
WILLIAMS       PTCLDY    23  16  74 S9        30.28R WCI  13
PRESCOTT       CLEAR     29  21  72 S3        30.28R
FLAGSTAFF      CLEAR     21  15  78 CALM      30.30R
PAYSON         CLEAR     39  19  45 CALM      30.26R
PAGE           MOCLDY    33  23  66 CALM      30.31R
$$

AZZ009>014-017-181600-
NORTHEAST ARIZONA

CITY           SKY/WX    TMP DP  RH WIND       PRES   REMARKS
WINSLOW        MOCLDY    19   6  57 E3        30.33R
SAINT JOHNS    MOCLDY    20  15  81 CALM      30.31R
WINDOW ROCK    PTCLDY    13  10  88 CALM      30.32R
SHOW LOW       MOCLDY    25  18  74 CALM      30.31S
$$

AZZ540-542>544-546-548-181600-
GREATER PHOENIX AREA

CITY           SKY/WX    TMP DP  RH WIND       PRES   REMARKS
PHOENIX        PTCLDY    48  32  53 CALM      30.17R
BUCKEYE        CLEAR     43  30  61 E6        30.18S
GLENDALE       PTCLDY    45  34  65 CALM      30.20R
LUKE AFB       CLEAR     42  32  67 N6        30.17R
DEER VALLEY    CLEAR     44  30  57 CALM      30.17R
SCOTTSDALE     CLEAR     44  33  65 CALM      30.19R
MESA-FALCON    CLEAR     50  27  40 CALM      30.19R
MESA-GATEWAY   PTCLDY    39  27  60 E6        30.19R WCI  35
CHANDLER       CLEAR     45  28  53 NE6       30.18R
$$

AZZ539-553-181600-
SOUTHWEST MARICOPA COUNTY AND PINAL COUNTY

CITY           SKY/WX    TMP DP  RH WIND       PRES   REMARKS
CASA GRANDE    NOT AVBL
GILA BEND      PTCLDY    45  27  50 E5        30.15R
$$

AZZ503-504-507>509-181600-
SOUTHEAST ARIZONA

CITY           SKY/WX    TMP DP  RH WIND       PRES   REMARKS
TUCSON         CLEAR     52  20  28 SE13G22   30.20R
DAVIS-MONTHAN  CLEAR     49  19  30 SE15      30.18R
RYAN FIELD     CLEAR     48  21  34 E10       30.19R
NOGALES        CLEAR     43  20  39 NE9       30.20R
SIERRA VISTA   PTCLDY    38  18  44 CALM      30.25R
DOUGLAS        PTCLDY    27  15  61 CALM      30.27R
SAFFORD        PTCLDY    36  17  46 SE9       30.29R WCI  29
$$

AZZ532-181600-
SOUTHWEST ARIZONA

CITY           SKY/WX    TMP DP  RH WIND       PRES   REMARKS
YUMA           PTCLDY    54  33  45 NE6       30.13R
$$

CAZ041-043-047-048-061-525>527-560>570-181600-
SOUTHERN CALIFORNIA

CITY           SKY/WX    TMP DP  RH WIND       PRES   REMARKS
DOWNTOWN L.A.  CLEAR     56  43  61 CALM      30.08R
L.A. AIRPORT   PTCLDY    58  46  64 E5        30.09R
SAN DIEGO      PTCLDY    56  50  80 VRB3      30.11R
BURBANK        CLEAR     52  42  69 N3        30.09R
ONTARIO        PTCLDY    55  39  54 NW3       30.11R
RIVERSIDE      CLEAR     51  41  68 CALM      30.11R
PALM SPRINGS   CLEAR     56  41  57 NW6       30.14R
EL CENTRO NAS  PTCLDY    48  28  46 SW5       30.14R
IMPERIAL       CLEAR     49  33  54 CALM      30.11S
BLYTHE         PTCLDY    49  35  58 S5        30.15R
NEEDLES        PTCLDY    51  37  58 W6        30.18R
$$

NVZ020-UTZ003-181600-
SOUTHERN NEVADA-UTAH

CITY           SKY/WX    TMP DP  RH WIND       PRES   REMARKS
LAS VEGAS      MOCLDY    49  39  68 CALM      30.20R
SALT LAKE CITY MOCLDY    36  27  69 SE9       30.22F WCI  29
$$

NMZ009-TXZ055-181600-
NEW MEXICO-WEST TEXAS

CITY           SKY/WX    TMP DP  RH WIND       PRES   REMARKS
ALBUQUERQUE    PTCLDY    23  13  65 CALM      30.30S
EL PASO        CLEAR     28  11  48 N8        30.30R WCI  20
$$


........................KEY........................
SKY/WX - SKY CONDITION/WEATHER
TMP    - TEMPERATURE IN FAHRENHEIT
DP     - DEW POINT IN FAHRENHEIT
RH     - RELATIVE HUMIDITY IN PERCENT
WIND   - DIRECTION AND SPEED IN MILES PER HOUR (MPH)
VRB    - VARIABLE WIND DIRECTION
PRES   - MEAN SEA LEVEL PRESSURE IN INCHES OF MERCURY
         F - FALLING PRESSURE   R - RISING PRESSURE
         S - STEADY PRESSURE
VSB    - VISIBILITY IN MILES
HX     - HEAT INDEX IN FAHRENHEIT
WCI    - WIND CHILL INDEX IN FAHRENHEIT
TC     - TEMPERATURE IN CELSIUS WHICH IS ALSO KNOWN AS
         TEMPERATURE IN CENTIGRADE
AFB    - AIR FORCE BASE
         LUKE AFB IS LUKE AIR FORCE BASE
         DAVIS-MONTHAN IS DAVIS-MONTHAN AIR FORCE BASE
NAS    - NAVAL AIR STATION
         EL CENTRO NAS IS EL CENTRO NAVAL AIR STATION
N/A    - NOT AVAILABLE




USA.gov is the U.S. government's official web portal to all federal, state and local government web resources and services.